TimeEET,TemperatureF,Dew PointF,Humidity,Sea Level PressureIn,VisibilityMPH,Wind Direction,Wind SpeedMPH,Gust SpeedMPH,PrecipitationIn,Events,Conditions,WindDirDegrees,DateUTC
12:50 AM,37.4,37.4,100,30.18,-9999.0,Calm,Calm,-,N/A,,Clear,0,2012-11-01 22:50:00
1:50 AM,35.6,35.6,100,30.18,-9999.0,Calm,Calm,-,N/A,,Clear,0,2012-11-01 23:50:00
2:00 AM,35,35,99,,6,Calm,Calm,,,,,,2012-11-02 00:00:00
2:50 AM,37.4,37.4,100,30.18,-9999.0,Calm,Calm,-,N/A,,Clear,0,2012-11-02 00:50:00
3:50 AM,33.8,33.8,100,30.18,4.3,Calm,Calm,-,N/A,,Partly Cloudy,0,2012-11-02 01:50:00
4:50 AM,32.0,32.0,100,30.18,2.8,Calm,Calm,-,N/A,,Scattered Clouds,0,2012-11-02 02:50:00
5:50 AM,32.0,32.0,100,30.18,-9999.0,Calm,Calm,-,N/A,,Scattered Clouds,0,2012-11-02 03:50:00
6:50 AM,35.6,35.6,100,30.21,-9999.0,WSW,1.2,-,N/A,,Scattered Clouds,240,2012-11-02 04:50:00
7:50 AM,39.2,39.2,100,30.21,2.8,Calm,Calm,-,N/A,,Scattered Clouds,0,2012-11-02 05:50:00
8:00 AM,40,40,100,,3,Calm,Calm,,,,Mist,,2012-11-02 06:00:00
8:50 AM,44.6,42.8,93,30.21,6.2,Calm,Calm,-,N/A,,Mostly Cloudy,0,2012-11-02 06:50:00
9:50 AM,50.0,42.8,76,30.21,6.2,Variable,1.2,-,N/A,,Mostly Cloudy,0,2012-11-02 07:50:00
10:50 AM,51.8,42.8,71,30.18,6.2,Calm,Calm,-,N/A,,Mostly Cloudy,0,2012-11-02 08:50:00
11:50 AM,55.4,42.8,63,30.15,6.2,Variable,1.2,-,N/A,,Mostly Cloudy,0,2012-11-02 09:50:00
12:50 PM,59.0,42.8,55,30.12,6.2,Variable,1.2,-,N/A,,Mostly Cloudy,0,2012-11-02 10:50:00
1:50 PM,59.0,42.8,55,30.12,6.2,Variable,1.2,-,N/A,,Mostly Cloudy,0,2012-11-02 11:50:00
2:00 PM,59,42,41,,6,SSW,1.2,,,,Scattered Clouds,200,2012-11-02 12:00:00
2:50 PM,59.0,42.8,55,30.12,6.2,Calm,Calm,-,N/A,,Mostly Cloudy,0,2012-11-02 12:50:00
3:50 PM,57.2,42.8,59,30.09,6.2,Calm,Calm,-,N/A,,Mostly Cloudy,0,2012-11-02 13:50:00
4:50 PM,55.4,46.4,72,30.09,6.2,ESE,4.6,-,N/A,,Mostly Cloudy,120,2012-11-02 14:50:00
5:50 PM,53.6,44.6,72,30.12,6.2,Variable,1.2,-,N/A,,Mostly Cloudy,0,2012-11-02 15:50:00
6:50 PM,51.8,44.6,76,30.12,6.2,Variable,1.2,-,N/A,,Mostly Cloudy,0,2012-11-02 16:50:00
7:50 PM,50.0,44.6,82,30.12,6.2,Variable,1.2,-,N/A,,Mostly Cloudy,0,2012-11-02 17:50:00
8:00 PM,49,44,78,,6,WNW,1.2,,,,Partly Cloudy,300,2012-11-02 18:00:00
8:50 PM,46.4,42.8,87,30.12,6.2,Variable,1.2,-,N/A,,Mostly Cloudy,0,2012-11-02 18:50:00
9:50 PM,44.6,42.8,93,30.12,6.2,Variable,1.2,-,N/A,,Mostly Cloudy,0,2012-11-02 19:50:00
10:50 PM,44.6,42.8,93,30.12,6.2,Variable,1.2,-,N/A,,Mostly Cloudy,0,2012-11-02 20:50:00
11:50 PM,41.0,39.2,93,30.12,6.2,Variable,1.2,-,N/A,,Scattered Clouds,0,2012-11-02 21:50:00